Weather History for LGEL - August, 2013

Change the Weather History Date:

Friday, August 9, 2013

  Actual Average Record
Temperature  
Mean Temperature 86 °F -  
Max Temperature 95 °F 87 °F 100 °F (2001)
Min Temperature 77 °F 70 °F 70 °F (2014)
Cooling Degree Days 21    
Growing Degree Days 36 (Base 50)    
Moisture  
Dew Point 50 °F    
Average Humidity 30    
Maximum Humidity 44    
Minimum Humidity 20    
Precipitation  
Precipitation 0.00 in - - ()
Sea Level Pressure  
Sea Level Pressure 29.86 in    
Wind  
Wind Speed 8 mph ()    
Max Wind Speed 15 mph    
Max Gust Speed 29 mph    
Averages and records for this station are not official NWS values.
T = Trace of Precipitation, MM = Missing Value Source: Averaged Metar Reports

Daily Weather History Graph

Daily Weather History Graph

Search for Another Location

Airport or City:

Trip Planner

Search our weather history database for the weather conditions in past years. The results will help you decide how hot, cold, wet, or windy it might be!

Date:

Astronomy

Aug. 09, 2013 Rise Set
Actual Time 6:35 AM EEST 8:26 PM EEST
Civil Twilight 6:06 AM EEST 8:54 PM EEST
Nautical Twilight 5:32 AM EEST 9:29 PM EEST
Astronomical Twilight 4:55 AM EEST 10:06 PM EEST
Moon 8:59 AM EEST (8/9) 9:30 PM EEST (8/9)
Length of Visible Light 14h 48m
Length of Day
13h 50m
Waxing Crescent, 6% of the Moon is Illuminated
Aug 9
Waxing Crescent
Aug 14
First Quarter
Aug 21
Full
Aug 28
Last Quarter
Sep 5
New

Hourly Weather History & Observations

Time (EEST) Temp. Heat Index Dew Point Humidity Pressure Visibility Wind Dir Wind Speed Gust Speed Precip Events Conditions
12:50 AM 78.8 °F - 51.8 °F 39% 29.92 in - Calm Calm - N/A   Clear
1:50 AM 77.0 °F - 51.8 °F 41% 29.92 in - Calm Calm - N/A   Clear
2:50 AM 78.8 °F - 53.6 °F 42% 29.92 in - Calm Calm - N/A   Clear
3:50 AM 78.8 °F - 51.8 °F 39% 29.92 in - Calm Calm - N/A   Clear
4:50 AM 78.8 °F - 53.6 °F 42% 29.89 in - NNW 8.1 mph - N/A   Clear
5:50 AM 77.0 °F - 53.6 °F 44% 29.89 in - NNW 4.6 mph - N/A   Clear
6:50 AM 77.0 °F - 53.6 °F 44% 29.89 in - NNW 6.9 mph - N/A   Clear
7:20 AM 80.6 °F 80.5 °F 55.4 °F 42% 29.89 in - NNW 9.2 mph - N/A   Clear
7:50 AM 80.6 °F 80.5 °F 55.4 °F 42% 29.89 in - NNW 12.7 mph - N/A   Clear
8:20 AM 82.4 °F 81.7 °F 55.4 °F 39% 29.89 in - NNW 15.0 mph - N/A   Clear
8:50 AM 84.2 °F 83.5 °F 57.2 °F 40% 29.89 in - NNW 15.0 mph 26.5 mph N/A   Clear
9:20 AM 84.2 °F 83.5 °F 57.2 °F 40% 29.89 in - NNW 15.0 mph 26.5 mph N/A   Clear
9:50 AM 86.0 °F 84.5 °F 55.4 °F 35% 29.89 in - NNW 10.4 mph 21.9 mph N/A   Clear
10:20 AM 87.8 °F - 51.8 °F 29% 29.89 in - NNW 13.8 mph 26.5 mph N/A   Clear
10:50 AM 89.6 °F - 51.8 °F 27% 29.89 in - North 11.5 mph 24.2 mph N/A   Clear
11:20 AM 89.6 °F 87.3 °F 53.6 °F 29% 29.89 in - North 15.0 mph 28.8 mph N/A   Clear
11:50 AM 91.4 °F - 51.8 °F 26% 29.89 in - North 12.7 mph 24.2 mph N/A   Clear
12:20 PM 91.4 °F - 51.8 °F 26% 29.89 in - NNW 11.5 mph 23.0 mph N/A   Clear
12:50 PM 93.2 °F - 50.0 °F 23% 29.89 in - North 11.5 mph 23.0 mph N/A   Clear
1:20 PM 93.2 °F - 50.0 °F 23% 29.86 in - NNW 10.4 mph 21.9 mph N/A   Clear
1:50 PM 95.0 °F - 50.0 °F 22% 29.86 in - NNW 12.7 mph - N/A   Clear
2:20 PM 93.2 °F - 48.2 °F 21% 29.86 in - North 13.8 mph 25.3 mph N/A   Clear
2:50 PM 95.0 °F - 48.2 °F 20% 29.86 in - NNW 15.0 mph 26.5 mph N/A   Clear
3:20 PM 95.0 °F - 48.2 °F 20% 29.86 in - NNW 15.0 mph - N/A   Clear
3:50 PM 93.2 °F - 48.2 °F 21% 29.83 in - NNW 15.0 mph - N/A   Clear
4:20 PM 93.2 °F - 48.2 °F 21% 29.83 in - North 12.7 mph - N/A   Clear
4:50 PM 93.2 °F - 48.2 °F 21% 29.83 in - North 13.8 mph - N/A   Clear
5:20 PM 93.2 °F - 48.2 °F 21% 29.83 in - North 12.7 mph 24.2 mph N/A   Clear
5:50 PM 91.4 °F - 48.2 °F 23% 29.83 in - North 11.5 mph - N/A   Clear
6:20 PM 91.4 °F - 46.4 °F 21% 29.83 in - NNW 11.5 mph - N/A   Clear
6:50 PM 91.4 °F - 46.4 °F 21% 29.80 in - North 12.7 mph - N/A   Clear
7:50 PM 87.8 °F - 48.2 °F 25% 29.80 in - North 13.8 mph - N/A   Clear
8:20 PM 86.0 °F - 48.2 °F 27% 29.80 in - North 13.8 mph - N/A   Clear
8:50 PM 84.2 °F - 48.2 °F 29% 29.80 in - NNW 10.4 mph - N/A   Clear
9:20 PM 84.2 °F - 46.4 °F 27% 29.83 in - NW 9.2 mph - N/A   Clear
9:50 PM 82.4 °F - 46.4 °F 28% 29.83 in - NNW 9.2 mph - N/A   Clear
10:20 PM 82.4 °F - 48.2 °F 30% 29.83 in - NW 9.2 mph - N/A   Clear
10:50 PM 82.4 °F - 46.4 °F 28% 29.83 in - NW 8.1 mph - N/A   Clear
11:20 PM 80.6 °F - 46.4 °F 30% 29.83 in - NNW 5.8 mph - N/A   Clear
11:50 PM 78.8 °F - 46.4 °F 32% 29.80 in - North 4.6 mph - N/A   Clear